Regional Weather Roundup
Issued by NWS Little Rock, AR

Home | Current Version | Previous Version | Text Only | Print | Product List | Glossary On
Versions: 1 2 3 4 5 6 7 8 9 10 11 12 13 14 15 16 17 18 19 20 21 22 23 24 25 26 27 28 29 30 31 32
000
ASUS44 KLZK 271214
RWRLZK

WEATHER ROUNDUP FOR ARKANSAS
NATIONAL WEATHER SERVICE LITTLE ROCK AR
700 AM CDT TUE SEP 27 2016

NOTE: "FAIR" INDICATES FEW OR NO CLOUDS BELOW 12,000 FEET WITH NO
SIGNIFICANT WEATHER AND/OR OBSTRUCTIONS TO VISIBILITY.

ARZ001-003-010-029-271300-
NORTHWEST ARKANSAS

CITY           SKY/WX    TMP DP  RH WIND       PRES   REMARKS
FAYETTEVILLE   CLEAR     44  44 100 CALM      30.14S
6HR MIN TEMP:  44; 6HR MAX TEMP:  49;

FORT SMITH     CLOUDY    51  47  86 CALM      30.12R
6HR MIN TEMP:  51; 6HR MAX TEMP:  61;

HARRISON       CLEAR     47  43  86 CALM      30.12S
6HR MIN TEMP:  45; 6HR MAX TEMP:  51;

BENTONVILLE    CLEAR     46  41  81 CALM      30.13S
6HR MIN TEMP:  46; 6HR MAX TEMP:  52;

ROGERS         CLEAR     48  47  96 CALM      30.14S
6HR MIN TEMP:  47; 6HR MAX TEMP:  53;

SILOAM SPGS    CLEAR     45  36  70 CALM      30.14S
6HR MIN TEMP:  43; 6HR MAX TEMP:  50;

HIGHFILL       CLEAR     46  43  89 CALM      30.14R
6HR MIN TEMP:  44; 6HR MAX TEMP:  51;

SPRINGDALE     CLEAR     46  46 100 CALM      30.15R
$$

ARZ004-005-016-271300-
NORTH CENTRAL ARKANSAS

CITY           SKY/WX    TMP DP  RH WIND       PRES   REMARKS
BATESVILLE     CLEAR     50  46  87 NW5       30.10S
6HR MIN TEMP:  50; 6HR MAX TEMP:  54;

FLIPPIN        CLEAR     46  43  87 CALM      30.09S
6HR MIN TEMP:  46; 6HR MAX TEMP:  52;

MTN HOME       FOG       52  52 100 CALM      30.10S VSB 1/4
6HR MIN TEMP:  48; 6HR MAX TEMP:  53; 6HR PCP:  0.01;

$$

ARZ040-041-271300-
WEST CENTRAL ARKANSAS

CITY           SKY/WX    TMP DP  RH WIND       PRES   REMARKS
MENA           PTCLDY    52  52 100 CALM      30.13R
MOUNT IDA      CLOUDY    53  52  96 CALM      30.09S
6HR MIN TEMP:  53; 6HR MAX TEMP:  61;

$$

ARZ009-017-025-026-028-271300-
NORTHEAST ARKANSAS

CITY           SKY/WX    TMP DP  RH WIND       PRES   REMARKS
CORNING          N/A     46  46 100 W5        30.09S
JONESBORO      CLEAR     49  46  90 W3        30.07F
6HR MIN TEMP:  48; 6HR MAX TEMP:  60;

NEWPORT        CLEAR     51  48  89 W5        30.09S
6HR MIN TEMP:  50; 6HR MAX TEMP:  57;

WALNUT RIDGE   CLEAR     50  45  81 CALM      30.08S
6HR MIN TEMP:  50; 6HR MAX TEMP:  57;

BLYTHEVILLE    CLEAR     50  48  93 NW5       30.06F
6HR MIN TEMP:  50; 6HR MAX TEMP:  55;

$$

ARZ022-023-033-042-044-271300-
CENTRAL ARKANSAS

CITY           SKY/WX    TMP DP  RH WIND       PRES   REMARKS
LITTLE ROCK    PTCLDY    59  49  69 NW5       30.10R
6HR MIN TEMP:  58; 6HR MAX TEMP:  64;

JACKSONVILLE   PTCLDY    52  50  95 W5        30.09S
6HR MIN TEMP:  51; 6HR MAX TEMP:  60;

SEARCY         CLOUDY    50  49  96 CALM      30.11S
6HR MIN TEMP:  50; 6HR MAX TEMP:  59;

HOT SPRINGS    PTCLDY    57  53  86 CALM      30.10S
6HR MIN TEMP:  57; 6HR MAX TEMP:  64;

RUSSELLVILLE   CLEAR     51  49  92 CALM      30.11S
6HR MIN TEMP:  50; 6HR MAX TEMP:  57;

$$

ARZ036-271300-
EAST ARKANSAS

CITY           SKY/WX    TMP DP  RH WIND       PRES   REMARKS
WEST MEMPHIS   CLEAR     53  52  96 CALM      30.06S
6HR MIN TEMP:  53; 6HR MAX TEMP:  58;

$$

ARZ050-053-066-070-073-271300-
SOUTHWEST ARKANSAS

CITY           SKY/WX    TMP DP  RH WIND       PRES   REMARKS
ARKADELPHIA    FAIR      58  56  93 CALM      30.10R
6HR MIN TEMP:  56; 6HR MAX TEMP:  66;

TEXARKANA      CLOUDY    66  58  75 N5        30.09R
6HR MIN TEMP:  65; 6HR MAX TEMP:  68;

EL DORADO      CLOUDY    62  57  83 N3        30.08R
6HR MIN TEMP:  60; 6HR MAX TEMP:  62;

DE QUEEN       PTCLDY    56  56 100 CALM      30.09S FOG
6HR MIN TEMP:  55; 6HR MAX TEMP:  64;

$$

ARZ056-057-069-271300-
SOUTHEAST ARKANSAS

CITY           SKY/WX    TMP DP  RH WIND       PRES   REMARKS
PINE BLUFF     MOCLDY    58  54  86 N7        30.08S
6HR MIN TEMP:  58; 6HR MAX TEMP:  63;

STUTTGART      CLOUDY    55  48  76 N6        30.09R
6HR MIN TEMP:  55; 6HR MAX TEMP:  61;

MONTICELLO     PTCLDY    61  56  83 VRB3      30.06S
6HR MIN TEMP:  61; 6HR MAX TEMP:  64;


$$






USA.gov is the U.S. government's official web portal to all federal, state and local government web resources and services.